Time,TemperatureF,DewpointF,PressureIn,WindDirection,WindDirectionDegrees,WindSpeedMPH,WindSpeedGustMPH,Humidity,HourlyPrecipIn,Conditions,Clouds,dailyrainin,SoftwareType,DateUTC
2013-04-01 00:02:00,41.0,36.0,29.88,North,4,1.0,2.0,82,0.00,,,0.00,,2013-04-01 07:02:00,
2013-04-01 00:12:00,41.0,36.0,29.88,North,4,1.0,2.0,82,0.00,,,0.00,,2013-04-01 07:12:00,
2013-04-01 00:22:00,41.0,37.0,29.88,NW,311,0.0,2.0,85,0.00,,,0.00,,2013-04-01 07:22:00,
2013-04-01 00:31:00,41.0,36.0,29.88,NW,310,0.0,1.0,81,0.00,,,0.00,,2013-04-01 07:31:00,
2013-04-01 00:42:00,41.0,36.0,29.88,NW,310,0.0,1.0,81,0.00,,,0.00,,2013-04-01 07:42:00,
2013-04-01 00:52:00,42.0,38.0,29.88,NW,309,0.0,1.0,84,0.00,,,0.00,,2013-04-01 07:52:00,
2013-04-01 01:02:00,42.0,36.0,29.89,NW,309,0.0,1.0,79,0.00,,,0.00,,2013-04-01 08:02:00,
2013-04-01 01:12:00,42.0,36.0,29.89,NW,309,0.0,1.0,79,0.00,,,0.00,,2013-04-01 08:12:00,
2013-04-01 01:21:00,42.0,37.0,29.89,NW,309,0.0,0.0,82,0.00,,,0.00,,2013-04-01 08:21:00,
2013-04-01 01:32:00,42.0,37.0,29.89,NW,309,0.0,0.0,81,0.00,,,0.00,,2013-04-01 08:32:00,
2013-04-01 01:43:00,42.0,37.0,29.89,NW,309,0.0,0.0,81,0.00,,,0.00,,2013-04-01 08:43:00,
2013-04-01 01:52:00,44.0,37.0,29.90,NW,309,0.0,2.0,77,0.00,,,0.00,,2013-04-01 08:52:00,
2013-04-01 02:02:00,43.0,37.0,29.90,NW,309,0.0,1.0,78,0.00,,,0.00,,2013-04-01 09:02:00,
2013-04-01 02:12:00,43.0,37.0,29.90,NW,309,0.0,1.0,78,0.00,,,0.00,,2013-04-01 09:12:00,
2013-04-01 02:22:00,43.0,37.0,29.90,NW,309,0.0,1.0,79,0.00,,,0.00,,2013-04-01 09:22:00,
2013-04-01 02:32:00,44.0,37.0,29.90,NW,310,0.0,2.0,75,0.00,,,0.00,,2013-04-01 09:32:00,
2013-04-01 02:42:00,44.0,37.0,29.90,NW,310,0.0,2.0,75,0.00,,,0.00,,2013-04-01 09:42:00,
2013-04-01 02:53:00,43.0,36.0,29.90,NW,309,0.0,1.0,76,0.00,,,0.00,,2013-04-01 09:53:00,
2013-04-01 03:02:00,42.0,36.0,29.90,NW,309,0.0,0.0,79,0.00,,,0.00,,2013-04-01 10:02:00,
2013-04-01 03:12:00,42.0,36.0,29.90,NW,309,0.0,0.0,79,0.00,,,0.00,,2013-04-01 10:12:00,
2013-04-01 03:22:00,40.0,34.0,29.90,NNW,336,0.0,2.0,80,0.00,,,0.00,,2013-04-01 10:22:00,
2013-04-01 03:32:00,40.0,35.0,29.90,NNE,25,0.0,3.0,82,0.00,,,0.00,,2013-04-01 10:32:00,
2013-04-01 03:42:00,40.0,35.0,29.90,NNE,25,0.0,3.0,82,0.00,,,0.00,,2013-04-01 10:42:00,
2013-04-01 03:53:00,38.0,34.0,29.90,West,275,0.0,2.0,84,0.00,,,0.00,,2013-04-01 10:53:00,
2013-04-01 04:02:00,40.0,36.0,29.90,WNW,286,1.0,1.0,84,0.00,,,0.00,,2013-04-01 11:02:00,
2013-04-01 04:12:00,40.0,36.0,29.90,WNW,286,1.0,1.0,84,0.00,,,0.00,,2013-04-01 11:12:00,
2013-04-01 04:22:00,40.0,34.0,29.90,WNW,300,0.0,3.0,80,0.00,,,0.00,,2013-04-01 11:22:00,
2013-04-01 04:32:00,39.0,35.0,29.90,West,281,1.0,3.0,85,0.00,,,0.00,,2013-04-01 11:32:00,
2013-04-01 04:42:00,39.0,35.0,29.90,West,281,1.0,3.0,85,0.00,,,0.00,,2013-04-01 11:42:00,
2013-04-01 04:53:00,40.0,35.0,29.90,WNW,296,0.0,2.0,83,0.00,,,0.00,,2013-04-01 11:53:00,
2013-04-01 05:02:00,40.0,35.0,29.90,WNW,296,0.0,1.0,82,0.00,,,0.00,,2013-04-01 12:02:00,
2013-04-01 05:11:00,40.0,35.0,29.90,WNW,296,0.0,1.0,82,0.00,,,0.00,,2013-04-01 12:11:00,
2013-04-01 05:22:00,39.0,34.0,29.91,WNW,293,1.0,2.0,81,0.00,,,0.00,,2013-04-01 12:22:00,
2013-04-01 05:32:00,41.0,35.0,29.91,NW,326,1.0,3.0,80,0.00,,,0.00,,2013-04-01 12:32:00,
2013-04-01 05:42:00,41.0,35.0,29.91,NW,326,1.0,3.0,80,0.00,,,0.00,,2013-04-01 12:42:00,
2013-04-01 05:52:00,42.0,35.0,29.90,NW,317,0.0,3.0,76,0.00,,,0.00,,2013-04-01 12:52:00,
2013-04-01 06:02:00,42.0,35.0,29.90,WNW,289,0.0,2.0,76,0.00,,,0.00,,2013-04-01 13:02:00,
2013-04-01 06:11:00,42.0,35.0,29.90,WNW,289,0.0,2.0,76,0.00,,,0.00,,2013-04-01 13:11:00,
2013-04-01 06:21:00,41.0,34.0,29.91,WNW,300,1.0,4.0,76,0.00,,,0.00,,2013-04-01 13:21:00,
2013-04-01 06:32:00,41.0,34.0,29.91,West,281,1.0,3.0,76,0.00,,,0.00,,2013-04-01 13:32:00,
2013-04-01 06:42:00,41.0,34.0,29.91,West,281,1.0,3.0,76,0.00,,,0.00,,2013-04-01 13:42:00,
2013-04-01 06:52:00,42.0,35.0,29.91,West,269,2.0,8.0,75,0.00,,,0.00,,2013-04-01 13:52:00,
2013-04-01 07:02:00,43.0,36.0,29.91,WNW,303,1.0,6.0,75,0.00,,,0.00,,2013-04-01 14:02:00,
2013-04-01 07:11:00,43.0,36.0,29.91,WNW,303,1.0,6.0,75,0.00,,,0.00,,2013-04-01 14:11:00,
2013-04-01 07:22:00,43.0,36.0,29.91,West,272,2.0,4.0,75,0.00,,,0.00,,2013-04-01 14:22:00,
2013-04-01 07:32:00,43.0,35.0,29.91,NW,317,0.0,2.0,73,0.00,,,0.00,,2013-04-01 14:32:00,
2013-04-01 07:42:00,43.0,35.0,29.91,NW,317,0.0,2.0,73,0.00,,,0.00,,2013-04-01 14:42:00,
2013-04-01 07:52:00,44.0,36.0,29.91,WNW,288,0.0,5.0,73,0.00,,,0.00,,2013-04-01 14:52:00,
2013-04-01 08:01:00,46.0,37.0,29.92,NW,312,1.0,4.0,70,0.00,,,0.00,,2013-04-01 15:01:00,
2013-04-01 08:12:00,46.0,37.0,29.92,NW,312,1.0,4.0,70,0.00,,,0.00,,2013-04-01 15:12:00,
2013-04-01 08:22:00,47.0,36.0,29.92,North,5,2.0,4.0,65,0.00,,,0.00,,2013-04-01 15:22:00,
2013-04-01 08:33:00,47.0,36.0,29.92,North,5,2.0,4.0,65,0.00,,,0.00,,2013-04-01 15:33:00,
2013-04-01 08:42:00,47.0,36.0,29.92,North,5,2.0,4.0,65,0.00,,,0.00,,2013-04-01 15:42:00,
2013-04-01 08:53:00,49.0,37.0,29.92,NNW,336,1.0,5.0,64,0.00,,,0.00,,2013-04-01 15:53:00,
2013-04-01 09:02:00,49.0,37.0,29.92,NNW,336,1.0,5.0,64,0.00,,,0.00,,2013-04-01 16:02:00,
2013-04-01 09:12:00,49.0,37.0,29.92,NNW,336,1.0,5.0,64,0.00,,,0.00,,2013-04-01 16:12:00,
2013-04-01 09:22:00,50.0,38.0,29.92,NNW,343,1.0,6.0,64,0.00,,,0.00,,2013-04-01 16:22:00,
2013-04-01 09:32:00,50.0,38.0,29.92,NNW,343,1.0,6.0,64,0.00,,,0.00,,2013-04-01 16:32:00,
2013-04-01 09:42:00,50.0,38.0,29.92,NNW,343,1.0,6.0,64,0.00,,,0.00,,2013-04-01 16:42:00,
2013-04-01 09:52:00,53.0,38.0,29.91,NNW,342,2.0,6.0,57,0.00,,,0.00,,2013-04-01 16:52:00,
2013-04-01 10:03:00,54.0,38.0,29.92,NE,44,4.0,9.0,54,0.00,,,0.00,,2013-04-01 17:03:00,
2013-04-01 10:12:00,54.0,38.0,29.92,NE,44,4.0,9.0,54,0.00,,,0.00,,2013-04-01 17:12:00,
2013-04-01 10:22:00,55.0,38.0,29.91,NE,49,3.0,8.0,52,0.00,,,0.00,,2013-04-01 17:22:00,
2013-04-01 10:31:00,55.0,38.0,29.91,NE,49,3.0,8.0,52,0.00,,,0.00,,2013-04-01 17:31:00,
2013-04-01 10:41:00,55.0,38.0,29.91,NE,49,3.0,8.0,52,0.00,,,0.00,,2013-04-01 17:41:00,
2013-04-01 10:52:00,57.0,38.0,29.91,North,5,2.0,9.0,48,0.00,,,0.00,,2013-04-01 17:52:00,
2013-04-01 11:02:00,58.0,38.0,29.91,NNW,338,5.0,7.0,48,0.00,,,0.00,,2013-04-01 18:02:00,
2013-04-01 11:12:00,58.0,38.0,29.91,NNW,338,5.0,7.0,48,0.00,,,0.00,,2013-04-01 18:12:00,
2013-04-01 11:22:00,58.0,37.0,29.91,East,80,3.0,9.0,46,0.00,,,0.00,,2013-04-01 18:22:00,
2013-04-01 11:32:00,59.0,38.0,29.91,ENE,61,2.0,6.0,45,0.00,,,0.00,,2013-04-01 18:32:00,
2013-04-01 11:42:00,59.0,38.0,29.91,ENE,61,2.0,6.0,45,0.00,,,0.00,,2013-04-01 18:42:00,
2013-04-01 11:53:00,60.0,37.0,29.91,NE,53,1.0,8.0,42,0.00,,,0.00,,2013-04-01 18:53:00,
2013-04-01 12:02:00,61.0,38.0,29.91,NNE,12,3.0,9.0,42,0.00,,,0.00,,2013-04-01 19:02:00,
2013-04-01 12:12:00,61.0,38.0,29.91,NNE,12,3.0,9.0,42,0.00,,,0.00,,2013-04-01 19:12:00,
2013-04-01 12:22:00,62.0,37.0,29.91,ESE,105,1.0,6.0,39,0.00,,,0.00,,2013-04-01 19:22:00,
2013-04-01 12:32:00,63.0,38.0,29.90,NNE,29,3.0,6.0,40,0.00,,,0.00,,2013-04-01 19:32:00,
2013-04-01 12:42:00,63.0,38.0,29.90,NNE,29,3.0,6.0,40,0.00,,,0.00,,2013-04-01 19:42:00,
2013-04-01 12:53:00,64.0,38.0,29.90,NE,50,1.0,4.0,38,0.00,,,0.00,,2013-04-01 19:53:00,
2013-04-01 13:01:00,65.0,38.0,29.89,ENE,59,1.0,6.0,37,0.00,,,0.00,,2013-04-01 20:01:00,
2013-04-01 13:12:00,65.0,38.0,29.89,ENE,59,1.0,6.0,37,0.00,,,0.00,,2013-04-01 20:12:00,
2013-04-01 13:22:00,66.0,39.0,29.89,SW,215,3.0,6.0,37,0.00,,,0.00,,2013-04-01 20:22:00,
2013-04-01 13:32:00,66.0,38.0,29.89,WSW,252,3.0,6.0,35,0.00,,,0.00,,2013-04-01 20:32:00,
2013-04-01 13:42:00,66.0,38.0,29.89,WSW,252,3.0,6.0,35,0.00,,,0.00,,2013-04-01 20:42:00,
2013-04-01 13:52:00,68.0,39.0,29.88,ENE,67,2.0,6.0,34,0.00,,,0.00,,2013-04-01 20:52:00,
2013-04-01 14:02:00,68.0,39.0,29.88,SW,227,1.0,9.0,35,0.00,,,0.00,,2013-04-01 21:02:00,
2013-04-01 14:11:00,68.0,39.0,29.88,SW,227,1.0,9.0,35,0.00,,,0.00,,2013-04-01 21:11:00,
2013-04-01 14:22:00,68.0,39.0,29.88,NW,320,2.0,4.0,34,0.00,,,0.00,,2013-04-01 21:22:00,
2013-04-01 14:32:00,69.0,38.0,29.87,SE,127,1.0,5.0,32,0.00,,,0.00,,2013-04-01 21:32:00,
2013-04-01 14:43:00,69.0,38.0,29.87,SE,127,1.0,5.0,32,0.00,,,0.00,,2013-04-01 21:43:00,
2013-04-01 14:53:00,70.0,36.0,29.87,ESE,113,2.0,5.0,29,0.00,,,0.00,,2013-04-01 21:53:00,
2013-04-01 15:02:00,70.0,36.0,29.87,ESE,113,2.0,5.0,29,0.00,,,0.00,,2013-04-01 22:02:00,
2013-04-01 15:12:00,70.0,36.0,29.87,ESE,113,2.0,5.0,29,0.00,,,0.00,,2013-04-01 22:12:00,
2013-04-01 15:22:00,70.0,38.0,29.86,ESE,102,3.0,7.0,31,0.00,,,0.00,,2013-04-01 22:22:00,
2013-04-01 15:32:00,70.0,38.0,29.85,ESE,120,1.0,7.0,31,0.00,,,0.00,,2013-04-01 22:32:00,
2013-04-01 15:43:00,70.0,38.0,29.85,ESE,120,1.0,7.0,31,0.00,,,0.00,,2013-04-01 22:43:00,
2013-04-01 15:52:00,70.0,38.0,29.85,WSW,246,4.0,8.0,31,0.00,,,0.00,,2013-04-01 22:52:00,
2013-04-01 16:02:00,71.0,38.0,29.85,SSW,203,3.0,7.0,30,0.00,,,0.00,,2013-04-01 23:02:00,
2013-04-01 16:11:00,71.0,38.0,29.85,SSW,203,3.0,7.0,30,0.00,,,0.00,,2013-04-01 23:11:00,
2013-04-01 16:22:00,71.0,36.0,29.85,SW,233,7.0,11.0,28,0.00,,,0.00,,2013-04-01 23:22:00,
2013-04-01 16:32:00,71.0,36.0,29.85,SSW,207,5.0,9.0,28,0.00,,,0.00,,2013-04-01 23:32:00,
2013-04-01 16:42:00,71.0,36.0,29.85,SSW,207,5.0,9.0,28,0.00,,,0.00,,2013-04-01 23:42:00,
2013-04-01 16:53:00,71.0,36.0,29.85,SW,221,5.0,10.0,28,0.00,,,0.00,,2013-04-01 23:53:00,
2013-04-01 17:02:00,70.0,35.0,29.84,SW,215,2.0,8.0,28,0.00,,,0.00,,2013-04-02 00:02:00,
2013-04-01 17:11:00,70.0,35.0,29.84,SW,215,2.0,8.0,28,0.00,,,0.00,,2013-04-02 00:11:00,
2013-04-01 17:22:00,70.0,34.0,29.84,SSW,212,6.0,10.0,26,0.00,,,0.00,,2013-04-02 00:22:00,
2013-04-01 17:32:00,70.0,35.0,29.84,SSW,210,7.0,10.0,28,0.00,,,0.00,,2013-04-02 00:32:00,
2013-04-01 17:42:00,70.0,35.0,29.84,SSW,210,7.0,10.0,28,0.00,,,0.00,,2013-04-02 00:42:00,
2013-04-01 17:52:00,69.0,35.0,29.84,SW,221,5.0,10.0,29,0.00,,,0.00,,2013-04-02 00:52:00,
2013-04-01 18:01:00,69.0,35.0,29.84,SW,221,5.0,10.0,29,0.00,,,0.00,,2013-04-02 01:01:00,
2013-04-01 18:11:00,69.0,35.0,29.84,SW,221,5.0,10.0,29,0.00,,,0.00,,2013-04-02 01:11:00,
2013-04-01 18:21:00,67.0,35.0,29.84,West,260,1.0,7.0,31,0.00,,,0.00,,2013-04-02 01:21:00,
2013-04-01 18:31:00,65.0,36.0,29.84,WNW,288,0.0,2.0,34,0.00,,,0.00,,2013-04-02 01:31:00,
2013-04-01 18:43:00,65.0,36.0,29.84,WNW,288,0.0,2.0,34,0.00,,,0.00,,2013-04-02 01:43:00,
2013-04-01 18:52:00,63.0,38.0,29.84,WNW,289,0.0,1.0,39,0.00,,,0.00,,2013-04-02 01:52:00,
2013-04-01 19:01:00,62.0,37.0,29.84,WNW,286,1.0,3.0,40,0.00,,,0.00,,2013-04-02 02:01:00,
2013-04-01 19:12:00,62.0,37.0,29.84,WNW,286,1.0,3.0,40,0.00,,,0.00,,2013-04-02 02:12:00,
2013-04-01 19:21:00,61.0,38.0,29.84,WNW,286,2.0,2.0,42,0.00,,,0.00,,2013-04-02 02:21:00,
2013-04-01 19:32:00,60.0,37.0,29.84,WNW,290,1.0,2.0,43,0.00,,,0.00,,2013-04-02 02:32:00,
2013-04-01 19:42:00,60.0,37.0,29.84,WNW,290,1.0,2.0,43,0.00,,,0.00,,2013-04-02 02:42:00,
2013-04-01 19:52:00,59.0,38.0,29.85,WNW,291,0.0,1.0,45,0.00,,,0.00,,2013-04-02 02:52:00,
2013-04-01 20:01:00,59.0,38.0,29.85,WNW,291,0.0,1.0,45,0.00,,,0.00,,2013-04-02 03:01:00,
2013-04-01 20:11:00,59.0,38.0,29.85,WNW,291,0.0,1.0,45,0.00,,,0.00,,2013-04-02 03:11:00,
2013-04-01 20:21:00,50.0,38.0,29.85,WNW,291,0.0,0.0,62,0.00,,,0.00,,2013-04-02 03:21:00,
2013-04-01 20:53:00,54.0,38.0,29.86,West,267,2.0,3.0,55,0.00,,,0.00,,2013-04-02 03:53:00,
2013-04-01 21:02:00,54.0,38.0,29.86,West,267,2.0,3.0,55,0.00,,,0.00,,2013-04-02 04:02:00,
2013-04-01 21:13:00,54.0,38.0,29.86,West,267,2.0,3.0,55,0.00,,,0.00,,2013-04-02 04:13:00,
2013-04-01 21:22:00,53.0,37.0,29.87,SSW,211,1.0,3.0,55,0.00,,,0.00,,2013-04-02 04:22:00,
2013-04-01 21:32:00,53.0,37.0,29.87,SSW,211,1.0,3.0,55,0.00,,,0.00,,2013-04-02 04:32:00,
2013-04-01 21:42:00,53.0,37.0,29.87,SSW,211,1.0,3.0,55,0.00,,,0.00,,2013-04-02 04:42:00,
2013-04-01 21:52:00,49.0,37.0,29.87,SSW,211,0.0,0.0,63,0.00,,,0.00,,2013-04-02 04:52:00,
2013-04-01 22:02:00,49.0,37.0,29.88,SSW,211,0.0,1.0,63,0.00,,,0.00,,2013-04-02 05:02:00,
2013-04-01 22:12:00,49.0,37.0,29.88,SSW,211,0.0,1.0,63,0.00,,,0.00,,2013-04-02 05:12:00,
2013-04-01 22:22:00,50.0,38.0,29.88,NNW,345,0.0,2.0,63,0.00,,,0.00,,2013-04-02 05:22:00,
2013-04-01 22:32:00,48.0,37.0,29.88,NW,305,0.0,1.0,66,0.00,,,0.00,,2013-04-02 05:32:00,
2013-04-01 22:42:00,48.0,37.0,29.88,NW,305,0.0,1.0,66,0.00,,,0.00,,2013-04-02 05:42:00,
2013-04-01 22:52:00,48.0,39.0,29.88,NW,305,0.0,1.0,71,0.00,,,0.00,,2013-04-02 05:52:00,
2013-04-01 23:02:00,46.0,37.0,29.88,North,358,0.0,2.0,71,0.00,,,0.00,,2013-04-02 06:02:00,
2013-04-01 23:12:00,46.0,37.0,29.88,North,358,0.0,2.0,71,0.00,,,0.00,,2013-04-02 06:12:00,
2013-04-01 23:21:00,47.0,38.0,29.88,North,358,0.0,1.0,71,0.00,,,0.00,,2013-04-02 06:21:00,
2013-04-01 23:32:00,46.0,38.0,29.88,North,359,0.0,1.0,73,0.00,,,0.00,,2013-04-02 06:32:00,
2013-04-01 23:42:00,46.0,38.0,29.88,North,359,0.0,1.0,73,0.00,,,0.00,,2013-04-02 06:42:00,
2013-04-01 23:52:00,46.0,39.0,29.88,North,358,0.0,2.0,75,0.00,,,0.00,,2013-04-02 06:52:00,